Beckley, WV

4:45 PM EDT on August 19, 2017 (GMT -0400)
Raleigh County Memorial

Weather History for KBKW - March, 2012

Change the Weather History Date:

Wednesday, March 28, 2012

  Actual Average Record
Temperature  
Mean Temperature 65 °F 46 °F  
Max Temperature 77 °F 56 °F 81 °F (1989)
Min Temperature 52 °F 36 °F 9 °F (1982)
Degree Days  
Heating Degree Days 0 19  
Month to date heating degree days 323 655  
Since 1 July heating degree days 3716 4656  
Cooling Degree Days 0 0  
Month to date cooling degree days 13 0  
Year to date cooling degree days 13 0  
Growing Degree Days 14 (Base 50)    
Moisture  
Dew Point 44 °F    
Average Humidity 56    
Maximum Humidity 78    
Minimum Humidity 33    
Precipitation  
Precipitation 0.10 in 0.11 in 1.31 in (1912)
Month to date precipitation 4.03 3.22  
Year to date precipitation 11.23 8.79  
Snow  
Snow 0.00 in - - ()
Month to date snowfall 6.0  
Since 1 September snowfall 35.9  
Snow Depth 0.00 in    
Sea Level Pressure  
Sea Level Pressure 29.95 in    
Wind  
Wind Speed 12 mph (West)    
Max Wind Speed 31 mph    
Max Gust Speed 41 mph    
Visibility 9 miles    
Events Rain    
T = Trace of Precipitation, MM = Missing Value Source: NWS Daily Summary

Daily Weather History Graph

Daily Weather History Graph

Search for Another Location

Airport or City:

Trip Planner

Search our weather history database for the weather conditions in past years. The results will help you decide how hot, cold, wet, or windy it might be!

Date:

Astronomy

Mar. 28, 2012 Rise Set
Actual Time 7:15 AM EDT 7:44 PM EDT
Civil Twilight 6:48 AM EDT 8:10 PM EDT
Nautical Twilight 6:17 AM EDT 8:41 PM EDT
Astronomical Twilight 5:46 AM EDT 9:13 PM EDT
Moon 10:36 AM EDT (3/28) 12:39 AM EDT (3/28)
Length of Visible Light 13h 21m
Length of Day
12h 29m
Waxing Crescent, 30% of the Moon is Illuminated
Mar 28
Waxing Crescent
Mar 30
First Quarter
Apr 6
Full
Apr 13
Last Quarter
Apr 21
New

Hourly Weather History & Observations

Time (EDT) Temp. Dew Point Humidity Pressure Visibility Wind Dir Wind Speed Gust Speed Precip Events Conditions
12:51 AM 55.0 °F 28.9 °F 37% 30.10 in 10.0 mi SSE 9.2 mph - N/A   Clear
1:51 AM 55.0 °F 30.0 °F 38% 30.08 in 10.0 mi SSE 3.5 mph - N/A   Clear
2:51 AM 55.9 °F 32.0 °F 40% 30.06 in 10.0 mi SSW 5.8 mph - N/A   Clear
3:51 AM 57.0 °F 36.0 °F 45% 30.03 in 10.0 mi SW 4.6 mph - N/A   Clear
4:51 AM 57.0 °F 37.0 °F 47% 30.04 in 10.0 mi Variable 4.6 mph - N/A   Clear
5:51 AM 55.0 °F 37.9 °F 53% 30.04 in 10.0 mi WSW 5.8 mph - N/A   Clear
6:51 AM 54.0 °F 39.0 °F 57% 30.05 in 10.0 mi WSW 5.8 mph - N/A   Clear
7:51 AM 55.9 °F 39.9 °F 55% 30.04 in 10.0 mi WSW 6.9 mph - N/A   Clear
8:51 AM 59.0 °F 42.1 °F 53% 30.05 in 10.0 mi WSW 6.9 mph - N/A   Clear
9:51 AM 64.0 °F 44.1 °F 48% 30.03 in 10.0 mi WSW 13.8 mph 20.7 mph N/A   Clear
10:51 AM 66.9 °F 46.0 °F 47% 30.00 in 10.0 mi West 19.6 mph 24.2 mph N/A   Clear
11:51 AM 70.0 °F 46.9 °F 44% 29.96 in 10.0 mi West 19.6 mph 27.6 mph N/A   Clear
12:51 PM 72.0 °F 46.0 °F 40% 29.92 in 10.0 mi West 17.3 mph 31.1 mph N/A   Partly Cloudy
1:51 PM 75.9 °F 46.0 °F 35% 29.87 in 10.0 mi West 18.4 mph 27.6 mph N/A   Partly Cloudy
2:51 PM 75.9 °F 44.1 °F 32% 29.85 in 10.0 mi West 23.0 mph 34.5 mph N/A   Clear
3:51 PM 75.0 °F 44.1 °F 33% 29.83 in 10.0 mi West 20.7 mph 27.6 mph N/A   Partly Cloudy
4:51 PM 75.9 °F 44.1 °F 32% 29.80 in 10.0 mi West 26.5 mph 35.7 mph N/A   Mostly Cloudy
5:51 PM 73.0 °F 45.0 °F 37% 29.81 in 10.0 mi West 18.4 mph 28.8 mph N/A   Mostly Cloudy
6:51 PM 62.1 °F 51.1 °F 67% 29.88 in 6.0 mi NNW 15.0 mph - 0.02 in Rain Light Rain
7:04 PM 60.8 °F 48.2 °F 63% 29.92 in 2.5 mi West 17.3 mph 32.2 mph 0.08 in Rain Light Rain
7:06 PM 60.8 °F 50.0 °F 68% 29.91 in 3.0 mi WNW 12.7 mph 32.2 mph 0.08 in Rain Light Rain
7:51 PM 61.0 °F 53.1 °F 75% 29.88 in 10.0 mi WNW 6.9 mph - 0.08 in   Scattered Clouds
8:51 PM 61.0 °F 54.0 °F 78% 29.88 in 10.0 mi WNW 9.2 mph - N/A   Mostly Cloudy
9:51 PM 62.1 °F 54.0 °F 75% 29.88 in 10.0 mi WNW 11.5 mph - 0.00 in Rain Light Rain
10:51 PM 63.0 °F 51.1 °F 65% 29.87 in 10.0 mi WNW 11.5 mph 21.9 mph 0.00 in   Partly Cloudy
11:51 PM 62.1 °F 50.0 °F 65% 29.87 in 10.0 mi WNW 10.4 mph 19.6 mph N/A   Clear